Location: Santa Fe
(35.6870°N, 105.9370°W)
Time: 07:30:59
(UTC-06:00)

Amateur Radio Satellites - All Passes

Search period start: 25 March 2017 07:00
Search period end: 26 March 2017 07:00
Location: Santa Fe, 35.6870°N, 105.9370°W

Satellite Date Start Highest point End Downlink Frequencies (MHz)
Time Altitude Azimuth
NUDT-PHONESAT 25 Mar 07:02:26 07:05:58 43° 99° (E) 07:09:28 437.300
XW-2B 25 Mar 07:02:50 07:06:32 58° 101° (E) 07:10:12 145.730 - 145.750
KAITUO 1B 25 Mar 07:07:35 07:11:12 52° 100° (E) 07:14:48 145.475/437.950
AO-85 25 Mar 07:10:07 07:14:02 66° 243° (WSW) 07:18:06 145.980
XW-2C 25 Mar 07:12:55 07:16:40 83° 102° (ESE) 07:20:23 145.795 - 145.815
BEESAT 3 25 Mar 07:14:13 07:16:06 13° 47° (NE) 07:17:59 437.485
STRAND 1 25 Mar 07:27:51 07:32:56 62° 74° (ENE) 07:38:01 437.568
XW-2A 25 Mar 07:40:15 07:42:38 18° 95° (E) 07:44:59 145.665 - 145.685
CUTE-I 25 Mar 07:55:32 08:00:43 51° 288° (WNW) 08:05:51 437.470
YUBILEINY 25 Mar 07:56:55 08:05:23 57° 91° (E) 08:13:51 435.215
CUBEBUG 2 25 Mar 07:59:40 08:01:21 12° 91° (E) 08:03:01 437.445
NO-84 25 Mar 08:00:37 08:03:13 31° 317° (NW) 08:05:49 435.350 FM
DOVE 4 25 Mar 08:04:11 08:08:32 26° 291° (WNW) 08:12:48 437.250
LilacSat-2 25 Mar 08:05:25 08:08:09 19° 290° (WNW) 08:10:52 437.200
XW-2F 25 Mar 08:06:51 08:09:36 20° 289° (WNW) 08:12:20 145.980 - 146.000
AAUSAT CUBESAT 2 25 Mar 08:18:05 08:20:11 14° 93° (E) 08:22:16 437.432
SEEDS 25 Mar 08:27:27 08:31:23 39° 98° (E) 08:35:20 437.485
CUTE 1.7 + AOD 2 25 Mar 08:31:10 08:35:23 72° 102° (ESE) 08:39:35 437.475
HO-68 25 Mar 08:35:12 08:42:22 70° 104° (ESE) 08:49:30 435.675
AO-73 25 Mar 08:43:35 08:44:37 11° 91° (E) 08:45:39 145.935
BEESAT 3 25 Mar 08:50:06 08:54:02 55° 244° (WSW) 08:57:55 437.485
BEESAT 2 25 Mar 09:02:10 09:06:13 71° 60° (ENE) 09:10:14 435.950
UWE-3 25 Mar 09:03:34 09:07:39 41° 98° (E) 09:11:36 435.000/436.395/437.385
PCSat 25 Mar 09:06:01 09:09:24 17° 104° (ESE) 09:12:48 145.827
STRAND 1 25 Mar 09:10:09 09:12:28 13° 268° (W) 09:14:46 437.568
XW-2A 25 Mar 09:12:51 09:15:17 19° 289° (WNW) 09:17:40 145.665 - 145.685
CUBEBUG 2 25 Mar 09:34:01 09:38:15 48° 286° (WNW) 09:42:21 437.445
JUGNU 25 Mar 09:34:10 09:37:33 16° 174° (S) 09:40:57 437.505
Oscar 11 25 Mar 09:42:55 09:47:07 52° 100° (E) 09:51:18 .
ZACube-1 25 Mar 09:47:37 09:51:51 80° 100° (E) 09:56:00 437.345
DELFI C3 25 Mar 09:50:25 09:52:59 16° 94° (E) 09:55:33 145.870
AAUSAT CUBESAT 2 25 Mar 09:51:54 09:55:46 39° 287° (WNW) 09:59:38 437.432
YUBILEINY 25 Mar 09:55:24 10:02:34 28° 288° (WNW) 10:09:46 435.215
SEEDS 25 Mar 10:04:25 10:06:42 15° 293° (WNW) 10:09:01 437.485
PRISM 25 Mar 10:07:18 10:11:19 66° 258° (WSW) 10:15:23 437.425
AO-73 25 Mar 10:17:04 10:21:08 48° 286° (WNW) 10:25:07 145.935
TIGRISAT 25 Mar 10:18:57 10:23:37 68° 75° (ENE) 10:28:16 435.000
FO-29 25 Mar 10:23:29 10:31:07 57° 72° (ENE) 10:38:25 435.910
HO-68 25 Mar 10:24:25 10:29:23 21° 300° (WNW) 10:34:21 435.675
UNISAT 6 25 Mar 10:28:38 10:33:20 87° 255° (WSW) 10:38:03 437.425
UWE-3 25 Mar 10:41:23 10:43:41 14° 294° (WNW) 10:45:58 435.000/436.395/437.385
PCSat 25 Mar 10:47:00 10:52:16 55° 299° (WNW) 10:57:37 145.827
NANOSAT C BR1 25 Mar 11:14:04 11:17:06 19° 68° (ENE) 11:20:07 145.865
RS-15 25 Mar 11:15:16 11:21:57 17° 97° (E) 11:28:44 29.354- 29.394
EO-79 25 Mar 11:17:22 11:20:43 23° 70° (ENE) 11:24:05 145.935-145.965
Oscar 11 25 Mar 11:21:08 11:22:45 12° 294° (WNW) 11:24:22 .
JUGNU 25 Mar 11:22:18 11:25:49 16° 184° (S) 11:29:21 437.505
DELFI C3 25 Mar 11:24:18 11:27:47 30° 288° (WNW) 11:31:16 145.870
SRMSAT 25 Mar 11:34:45 11:37:50 14° 171° (S) 11:40:56 437.500
AIST 2D 25 Mar 11:41:02 11:44:34 81° 77° (ENE) 11:48:07 435.315
POLYITAN 1 25 Mar 11:44:11 11:48:17 47° 74° (ENE) 11:52:25 437.675
QB50P2 25 Mar 11:48:38 11:52:50 59° 75° (ENE) 11:57:03 145.880/145.840
ESTCUBE 1 25 Mar 11:49:05 11:52:50 25° 96° (E) 11:56:34 437.505/2401.250
LO-87 25 Mar 11:49:34 11:53:09 52° 100° (E) 11:56:42 145.935 - 145.965
DUCHIFAT 1 25 Mar 12:02:55 12:07:08 65° 75° (ENE) 12:11:21 145.980
FO-29 25 Mar 12:09:50 12:16:16 27° 266° (W) 12:22:32 435.910
BUGSAT 1 25 Mar 12:24:50 12:28:42 36° 72° (ENE) 12:32:36 437.445
SPROUT 25 Mar 12:26:40 12:29:17 16° 93° (E) 12:31:54 437.525
Oscar 19 25 Mar 12:32:14 12:35:08 15° 64° (ENE) 12:38:04 437.125/150
NANOSAT C BR1 25 Mar 12:48:47 12:52:34 31° 263° (W) 12:56:21 145.865
DX 1 25 Mar 12:50:20 12:52:24 13° 93° (E) 12:54:28 434.975-435.025
EO-79 25 Mar 12:52:46 12:56:19 25° 264° (W) 12:59:54 145.935-145.965
50 SAT 25 Mar 12:53:15 12:55:56 20° 96° (E) 12:58:36 437.505
VELOX 1 25 Mar 13:06:58 13:11:22 56° 101° (E) 13:15:44 145.980
JUGNU 25 Mar 13:13:00 13:14:02 10° 194° (SSW) 13:15:04 437.505
RS-15 25 Mar 13:20:30 13:32:23 82° 116° (ESE) 13:44:45 29.354- 29.394
SRMSAT 25 Mar 13:22:31 13:26:15 17° 181° (S) 13:30:00 437.500
POLYITAN 1 25 Mar 13:22:34 13:24:17 12° 268° (W) 13:26:01 437.675
ESTCUBE 1 25 Mar 13:25:49 13:29:32 25° 290° (WNW) 13:33:12 437.505/2401.250
UKube-1 25 Mar 13:31:40 13:35:23 27° 97° (E) 13:39:05 .
SPROUT 25 Mar 14:01:22 14:05:18 36° 288° (WNW) 14:09:12 437.525
BUGSAT 1 25 Mar 14:01:35 14:04:09 16° 266° (W) 14:06:43 437.445
SO-50 25 Mar 14:02:49 14:04:25 12° 107° (ESE) 14:06:00 436.795
AO-7 25 Mar 14:03:44 14:09:15 20° 55° (NE) 14:14:44 .
Oscar 19 25 Mar 14:08:56 14:13:57 57° 259° (W) 14:18:59 437.125/150
Gurwin Techsat 1B 25 Mar 14:12:52 14:18:11 85° 75° (ENE) 14:23:32 435.225
ITAMSAT 1 25 Mar 14:16:31 14:19:17 15° 63° (ENE) 14:22:02 435.822/435.867
DX 1 25 Mar 14:24:35 14:28:47 46° 287° (WNW) 14:32:58 434.975-435.025
50 SAT 25 Mar 14:26:21 14:28:50 18° 290° (WNW) 14:31:18 437.505
NO-84 25 Mar 14:35:58 14:38:51 28° 41° (NE) 14:41:58 435.350 FM
VELOX 1 25 Mar 14:45:32 14:47:17 12° 295° (WNW) 14:49:03 145.980
BEESAT 25 Mar 14:45:40 14:47:38 12° 92° (E) 14:49:35 436.000
ITUPSAT 1 25 Mar 14:59:57 15:03:11 18° 94° (E) 15:06:23 437.325
UKube-1 25 Mar 15:07:54 15:11:14 22° 291° (WNW) 15:14:32 .
SRMSAT 25 Mar 15:12:04 15:14:40 13° 191° (SSW) 15:17:15 437.500
RS-15 25 Mar 15:35:54 15:46:19 32° 320° (NW) 15:57:02 29.354- 29.394
SO-50 25 Mar 15:39:42 15:44:19 64° 301° (WNW) 15:48:54 436.795
AO-7 25 Mar 15:52:37 16:00:59 86° 253° (WSW) 16:09:21 .
ITAMSAT 1 25 Mar 15:52:59 15:58:10 64° 258° (WSW) 16:03:22 435.822/435.867
NO-84 25 Mar 16:13:37 16:16:20 22° 233° (SW) 16:19:13 435.350 FM
BEESAT 25 Mar 16:21:03 16:25:43 56° 286° (WNW) 16:30:20 436.000
ITUPSAT 1 25 Mar 16:36:41 16:41:06 39° 289° (WNW) 16:45:30 437.325
KKS-1 25 Mar 16:39:02 16:41:59 17° 94° (E) 16:44:55 437.445
O/OREOS (USA 219) 25 Mar 16:43:05 16:46:45 25° 102° (ESE) 16:50:27 437.305
MOZHAYETS 4 25 Mar 16:48:13 16:52:45 68° 284° (WNW) 16:57:15
STARS 25 Mar 17:18:09 17:21:23 20° 95° (E) 17:24:37 437.465
DOVE 4 25 Mar 17:29:11 17:32:48 23° 68° (ENE) 17:36:35 437.250
CUTE-I 25 Mar 17:35:49 17:39:52 22° 66° (ENE) 17:43:57 437.470
XW-2D 25 Mar 17:36:23 17:38:49 16° 69° (ENE) 17:41:15 145.860 - 145.880
CUBESAT XI-V 25 Mar 17:37:14 17:41:51 62° 101° (E) 17:46:29 437.345
NUDT-PHONESAT 25 Mar 17:40:22 17:42:21 14° 69° (ENE) 17:44:20 437.300
XW-2B 25 Mar 17:42:00 17:44:42 19° 70° (ENE) 17:47:23 145.730 - 145.750
KAITUO 1B 25 Mar 17:45:49 17:48:12 16° 70° (ENE) 17:50:37 145.475/437.950
AO-7 25 Mar 17:50:42 17:54:40 14° 269° (W) 17:58:39 .
XW-2C 25 Mar 17:51:37 17:54:46 25° 72° (ENE) 17:57:54 145.795 - 145.815
RS-15 25 Mar 17:58:28 18:04:45 15° 354° (N) 18:11:02 29.354- 29.394
YUBILEINY 25 Mar 18:11:38 18:18:16 23° 70° (ENE) 18:24:51 435.215
KKS-1 25 Mar 18:14:30 18:18:38 37° 288° (WNW) 18:22:44 437.445
O/OREOS (USA 219) 25 Mar 18:22:13 18:26:01 26° 297° (WNW) 18:29:52 437.305
LilacSat-2 25 Mar 18:43:05 18:46:52 61° 259° (W) 18:50:40 437.200
XW-2F 25 Mar 18:43:37 18:47:23 66° 258° (WSW) 18:51:10 145.980 - 146.000
STARS 25 Mar 18:53:50 18:57:44 31° 289° (WNW) 19:01:37 437.465
HO-68 25 Mar 19:00:49 19:07:16 39° 66° (ENE) 19:13:45 435.675
DOVE 4 25 Mar 19:06:13 19:10:16 31° 264° (W) 19:14:34 437.250
XW-2D 25 Mar 19:09:29 19:12:46 27° 263° (W) 19:16:04 145.860 - 145.880
NUDT-PHONESAT 25 Mar 19:12:36 19:15:58 32° 262° (W) 19:19:21 437.300
CUTE-I 25 Mar 19:14:33 19:19:36 42° 261° (W) 19:24:41 437.470
XW-2B 25 Mar 19:15:34 19:18:42 24° 264° (W) 19:21:50 145.730 - 145.750
CUBESAT XI-V 25 Mar 19:16:56 19:18:40 12° 295° (WNW) 19:20:23 437.345
SEEDS 25 Mar 19:16:57 19:19:54 19° 69° (ENE) 19:22:51 437.485
KAITUO 1B 25 Mar 19:18:47 19:22:00 27° 263° (W) 19:25:13 145.475/437.950
CUTE 1.7 + AOD 2 25 Mar 19:20:55 19:24:42 33° 72° (ENE) 19:28:29 437.475
XW-2C 25 Mar 19:26:15 19:28:55 18° 265° (W) 19:31:34 145.795 - 145.815
M-CUBED/EXP-1 PRIME 25 Mar 19:34:37 19:39:17 89° 100° (E) 19:43:58 437.505
PCSat 25 Mar 19:37:36 19:43:00 63° 61° (ENE) 19:48:21 145.827
XW-2A 25 Mar 19:40:06 19:43:32 81° 78° (ENE) 19:47:00 145.665 - 145.685
STRAND 1 25 Mar 19:41:52 19:46:09 26° 96° (E) 19:50:23 437.568
UWE-3 25 Mar 19:57:25 20:01:15 26° 70° (ENE) 20:05:04 435.000/436.395/437.385
ISS 25 Mar 20:05:07 20:06:57 14° 128° (SE) 20:08:47 437.550
YUBILEINY 25 Mar 20:07:05 20:15:40 66° 268° (W) 20:24:15 435.215
Tancredo 1 25 Mar 20:09:29 20:11:42 18° 129° (SE) 20:13:55 437.200
RS-15 25 Mar 20:14:43 20:24:07 24° 31° (NNE) 20:33:14 29.354- 29.394
CUBEBUG 2 25 Mar 20:27:55 20:32:41 88° 253° (WSW) 20:37:27 437.445
Oscar 11 25 Mar 20:34:58 20:38:37 27° 71° (ENE) 20:42:17 .
AAUSAT CUBESAT 2 25 Mar 20:38:24 20:42:30 87° 76° (ENE) 20:46:37 437.432
ZACube-1 25 Mar 20:39:53 20:44:11 43° 74° (ENE) 20:48:28 437.345
HO-68 25 Mar 20:48:29 20:54:55 36° 262° (W) 21:01:24 435.675
SEEDS 25 Mar 20:51:45 20:55:23 29° 263° (W) 20:59:00 437.485
CUTE 1.7 + AOD 2 25 Mar 20:57:54 21:00:35 16° 266° (W) 21:03:17 437.475
AO-73 25 Mar 21:08:35 21:13:08 84° 78° (ENE) 21:17:39 145.935
STRAND 1 25 Mar 21:20:49 21:25:16 31° 291° (WNW) 21:29:41 437.568
AO-85 25 Mar 21:21:16 21:25:48 81° 119° (ESE) 21:30:02 145.980
PCSat 25 Mar 21:22:54 21:25:47 15° 256° (WSW) 21:28:39 145.827
UWE-3 25 Mar 21:33:37 21:37:34 27° 264° (W) 21:41:30 435.000/436.395/437.385
ISS 25 Mar 21:39:59 21:43:07 43° 322° (NW) 21:46:16 437.550
Tancredo 1 25 Mar 21:44:44 21:47:38 33° 324° (NW) 21:50:35 437.200
PRISM 25 Mar 21:52:07 21:55:13 20° 96° (E) 21:58:18 437.425
DELFI C3 25 Mar 22:06:03 22:09:57 83° 258° (WSW) 22:13:53 145.870
Oscar 11 25 Mar 22:11:25 22:14:43 21° 265° (W) 22:18:00 .
TIGRISAT 25 Mar 22:14:50 22:17:39 17° 93° (E) 22:20:25 435.000
ZACube-1 25 Mar 22:17:56 22:20:36 15° 267° (W) 22:23:16 437.345
UNISAT 6 25 Mar 22:24:08 22:27:40 23° 95° (E) 22:31:09 437.425
LO-87 25 Mar 22:24:18 22:26:13 14° 68° (ENE) 22:28:07 145.935 - 145.965
RS-15 25 Mar 22:26:55 22:39:14 74° 58° (ENE) 22:50:54 29.354- 29.394
BEESAT 3 25 Mar 22:36:58 22:40:41 46° 115° (ESE) 22:44:29 437.485
ESTCUBE 1 25 Mar 22:46:34 22:49:27 17° 67° (ENE) 22:52:21 437.505/2401.250
BEESAT 2 25 Mar 22:51:17 22:54:28 24° 112° (ESE) 22:57:42 435.950
AO-85 25 Mar 23:05:53 23:06:37 10° 314° (NW) 23:07:22 145.980
FO-29 25 Mar 23:22:41 23:28:30 56° 100° (E) 23:33:44 435.910
PRISM 25 Mar 23:26:55 23:30:27 27° 289° (WNW) 23:33:59 437.425
QB50P2 25 Mar 23:38:35 23:40:05 12° 92° (E) 23:41:37 145.880/145.840
TIGRISAT 25 Mar 23:50:26 23:54:27 35° 288° (WNW) 23:58:21 435.000
DUCHIFAT 1 25 Mar 23:51:43 23:53:33 13° 92° (E) 23:55:22 145.980
LO-87 25 Mar 23:56:14 23:59:22 29° 263° (W) 00:02:32 145.935 - 145.965
UNISAT 6 26 Mar 00:00:41 00:04:18 25° 290° (WNW) 00:07:51 437.425
VELOX 1 26 Mar 00:01:21 00:05:18 34° 71° (ENE) 00:09:17 145.980
SO-50 26 Mar 00:13:47 00:18:09 48° 57° (ENE) 00:22:29 436.795
BEESAT 3 26 Mar 00:16:21 00:18:31 14° 312° (NW) 00:20:44 437.485
ESTCUBE 1 26 Mar 00:21:46 00:25:55 38° 262° (W) 00:30:06 437.505/2401.250
UKube-1 26 Mar 00:24:06 00:26:52 17° 67° (ENE) 00:29:38 .
BEESAT 2 26 Mar 00:28:53 00:32:08 24° 307° (NW) 00:35:27 435.950
NANOSAT C BR1 26 Mar 00:35:25 00:39:31 49° 100° (E) 00:43:34 145.865
EO-79 26 Mar 00:39:26 00:43:38 61° 101° (ESE) 00:47:47 145.935-145.965
RS-15 26 Mar 00:40:59 00:50:28 28° 258° (WSW) 00:59:40 29.354- 29.394
AIST 2D 26 Mar 00:42:12 00:45:35 50° 284° (WNW) 00:48:56 435.315
SPROUT 26 Mar 00:51:00 00:55:17 73° 259° (W) 00:59:35 437.525
50 SAT 26 Mar 00:55:49 00:59:15 80° 258° (WSW) 01:02:43 437.505
POLYITAN 1 26 Mar 01:07:23 01:11:33 59° 285° (WNW) 01:15:40 437.675
FO-29 26 Mar 01:09:11 01:12:54 17° 299° (WNW) 01:16:24 435.910
QB50P2 26 Mar 01:12:02 01:16:07 47° 286° (WNW) 01:20:09 145.880/145.840
DX 1 26 Mar 01:16:37 01:20:56 80° 255° (WSW) 01:25:19 434.975-435.025
DUCHIFAT 1 26 Mar 01:25:25 01:29:25 43° 286° (WNW) 01:33:22 145.980
VELOX 1 26 Mar 01:38:48 01:41:48 18° 266° (W) 01:44:51 145.980
BUGSAT 1 26 Mar 01:44:16 01:48:28 86° 286° (WNW) 01:52:34 437.445
BEESAT 26 Mar 01:50:14 01:51:44 11° 63° (ENE) 01:53:14 436.000
SO-50 26 Mar 01:55:42 01:58:10 15° 251° (WSW) 02:00:37 436.795
UKube-1 26 Mar 01:58:36 02:02:34 36° 261° (W) 02:06:34 .
ITUPSAT 1 26 Mar 02:04:24 02:07:20 16° 65° (ENE) 02:10:16 437.325
NANOSAT C BR1 26 Mar 02:13:05 02:14:45 12° 295° (WNW) 02:16:25 145.865
Oscar 19 26 Mar 02:23:12 02:28:21 64° 101° (E) 02:33:29 437.125/150
Gurwin Techsat 1B 26 Mar 02:32:14 02:37:17 42° 99° (E) 02:42:18 435.225
ISS 26 Mar 02:35:54 02:36:07 10° 22° (NNE) 02:36:21 437.550
Tancredo 1 26 Mar 02:38:51 02:39:43 11° 24° (NNE) 02:40:36 437.200
O/OREOS (USA 219) 26 Mar 02:55:20 02:59:26 30° 64° (ENE) 03:03:29 437.305
BEESAT 26 Mar 03:24:07 03:28:52 69° 257° (WSW) 03:33:39 436.000
KKS-1 26 Mar 03:35:44 03:37:21 12° 64° (ENE) 03:38:59 437.445
ITUPSAT 1 26 Mar 03:40:07 03:44:44 47° 260° (W) 03:49:22 437.325
MOZHAYETS 4 26 Mar 03:46:41 03:51:17 80° 76° (ENE) 03:55:54
AO-7 26 Mar 03:57:58 04:05:35 39° 100° (E) 04:13:08 .
Oscar 19 26 Mar 04:04:28 04:07:05 14° 297° (WNW) 04:09:42 437.125/150
ITAMSAT 1 26 Mar 04:08:47 04:13:55 58° 101° (ESE) 04:18:59 435.822/435.867
ISS 26 Mar 04:09:58 04:13:12 53° 39° (NE) 04:16:26 437.550
Gurwin Techsat 1B 26 Mar 04:12:57 04:16:53 21° 294° (WNW) 04:20:49 435.225
STARS 26 Mar 04:13:06 04:15:11 13° 65° (ENE) 04:17:16 437.465
Tancredo 1 26 Mar 04:13:11 04:16:23 67° 41° (NE) 04:19:34 437.200
O/OREOS (USA 219) 26 Mar 04:35:06 04:38:37 22° 259° (W) 04:42:06 437.305
CUBESAT XI-V 26 Mar 04:37:35 04:41:53 42° 73° (ENE) 04:46:12 437.345
KKS-1 26 Mar 05:08:59 05:13:22 58° 259° (W) 05:17:47 437.445
STARS 26 Mar 05:46:45 05:51:02 51° 260° (W) 05:55:22 437.465
ISS 26 Mar 05:48:00 05:49:19 12° 233° (SW) 05:50:37 437.550
ITAMSAT 1 26 Mar 05:49:50 05:52:50 16° 296° (WNW) 05:55:49 435.822/435.867
AO-7 26 Mar 05:50:38 05:58:17 43° 296° (WNW) 06:05:54 .
AO-85 26 Mar 05:55:33 05:58:54 26° 54° (NE) 06:02:19 145.980
CUBESAT XI-V 26 Mar 06:16:40 06:19:24 16° 267° (W) 06:22:09 437.345
M-CUBED/EXP-1 PRIME 26 Mar 06:18:05 06:21:38 63° 71° (ENE) 06:25:31 437.505
XW-2F 26 Mar 06:19:59 06:22:05 15° 94° (E) 06:24:12 145.980 - 146.000
LilacSat-2 26 Mar 06:20:11 06:22:37 16° 94° (E) 06:25:00 437.200
XW-2D 26 Mar 06:44:30 06:47:54 33° 98° (E) 06:51:18 145.860 - 145.880
NUDT-PHONESAT 26 Mar 06:45:59 06:49:06 26° 97° (E) 06:52:12 437.300
XW-2B 26 Mar 06:50:20 06:53:51 38° 98° (E) 06:57:21 145.730 - 145.750
KAITUO 1B 26 Mar 06:52:29 06:55:49 32° 97° (E) 06:59:09 145.475/437.950
